Terug naar catalogus

SL-16 DEB

ActiefLEO
NORAD 23275·DEBRIS·🇷🇺 Russia

Gelanceerd Dec 25, 1992 vanaf Baikonur Cosmodrome

Loading…

Volgende Passages (komende 24 uur)

TLE

VersSource: Space-Track

Epoch: Sep 13, 2026, 09:01 UTC

1 23275U 92093JF  26256.37596045  .00000256  00000-0  19923-3 0  9992
2 23275  71.2487  26.1712 0104924 240.1596 118.9059 13.98650248673517

Volg SL-16 DEB in realtime met AllMySat

Download on the App Store